Time,TemperatureF,DewpointF,PressureIn,WindDirection,WindDirectionDegrees,WindSpeedMPH,WindSpeedGustMPH,Humidity,HourlyPrecipIn,Conditions,Clouds,dailyrainin,SoftwareType,DateUTC
2013-09-09 00:04:00,69.2,68.3,29.96,N/A,-737280,0.0,-999.0,97,0.00,,,0.00,Wunderground v.1.15,2013-09-09 04:04:00,
2013-09-09 00:09:00,69.2,68.3,29.96,N/A,-737280,0.0,-999.0,97,0.00,,,0.00,Wunderground v.1.15,2013-09-09 04:09:00,
2013-09-09 00:14:00,69.2,68.3,29.96,N/A,-737280,0.0,-999.0,97,0.00,,,0.00,Wunderground v.1.15,2013-09-09 04:14:00,
2013-09-09 00:19:00,69.2,68.3,29.96,N/A,-737280,0.0,-999.0,97,0.00,,,0.00,Wunderground v.1.15,2013-09-09 04:19:00,
2013-09-09 00:24:00,68.9,68.0,29.96,N/A,-737280,0.0,-999.0,97,0.00,,,0.00,Wunderground v.1.15,2013-09-09 04:24:00,
2013-09-09 00:29:00,68.9,68.0,29.96,N/A,-737280,0.0,-999.0,97,0.00,,,0.00,Wunderground v.1.15,2013-09-09 04:29:00,
2013-09-09 00:34:00,68.9,68.0,29.96,N/A,-737280,0.0,-999.0,97,0.00,,,0.00,Wunderground v.1.15,2013-09-09 04:34:00,
2013-09-09 00:39:00,68.7,67.8,29.96,N/A,-737280,0.0,-999.0,97,0.00,,,0.00,Wunderground v.1.15,2013-09-09 04:39:00,
2013-09-09 00:44:00,68.7,67.8,29.96,N/A,-737280,0.0,-999.0,97,0.00,,,0.00,Wunderground v.1.15,2013-09-09 04:44:00,
2013-09-09 00:49:00,68.7,67.8,29.96,N/A,-737280,0.0,-999.0,97,0.00,,,0.00,Wunderground v.1.15,2013-09-09 04:49:00,
2013-09-09 00:54:00,68.7,67.8,29.96,N/A,-737280,0.0,-999.0,97,0.00,,,0.00,Wunderground v.1.15,2013-09-09 04:54:00,
2013-09-09 00:59:00,68.7,67.8,29.96,N/A,-737280,0.0,-999.0,97,0.00,,,0.00,Wunderground v.1.15,2013-09-09 04:59:00,
2013-09-09 01:09:00,68.6,67.7,29.96,N/A,-737280,0.0,-999.0,97,0.00,,,0.00,Wunderground v.1.15,2013-09-09 05:09:00,
2013-09-09 01:14:00,68.6,67.7,29.96,N/A,-737280,0.0,-999.0,97,0.00,,,0.00,Wunderground v.1.15,2013-09-09 05:14:00,
2013-09-09 01:19:00,68.6,67.7,29.96,N/A,-737280,0.0,-999.0,97,0.00,,,0.00,Wunderground v.1.15,2013-09-09 05:19:00,
2013-09-09 01:24:00,68.4,67.5,29.96,N/A,-737280,0.0,-999.0,97,0.00,,,0.00,Wunderground v.1.15,2013-09-09 05:24:00,
2013-09-09 01:29:00,68.4,67.5,29.96,N/A,-737280,0.0,-999.0,97,0.00,,,0.00,Wunderground v.1.15,2013-09-09 05:29:00,
2013-09-09 01:34:00,68.4,67.5,29.96,N/A,-737280,0.0,-999.0,97,0.00,,,0.00,Wunderground v.1.15,2013-09-09 05:34:00,
2013-09-09 01:39:00,68.3,67.4,29.97,N/A,-737280,0.0,-999.0,97,0.00,,,0.00,Wunderground v.1.15,2013-09-09 05:39:00,
2013-09-09 01:44:00,68.3,67.4,29.97,N/A,-737280,0.0,-999.0,97,0.00,,,0.00,Wunderground v.1.15,2013-09-09 05:44:00,
2013-09-09 01:49:00,68.3,67.4,29.97,N/A,-737280,0.0,-999.0,97,0.00,,,0.00,Wunderground v.1.15,2013-09-09 05:49:00,
2013-09-09 01:54:00,68.1,67.2,29.97,N/A,-737280,0.0,-999.0,97,0.00,,,0.00,Wunderground v.1.15,2013-09-09 05:54:00,
2013-09-09 01:59:00,68.1,67.2,29.97,N/A,-737280,0.0,-999.0,97,0.00,,,0.00,Wunderground v.1.15,2013-09-09 05:59:00,
2013-09-09 02:04:00,68.1,67.2,29.97,N/A,-737280,0.0,-999.0,97,0.00,,,0.00,Wunderground v.1.15,2013-09-09 06:04:00,
2013-09-09 02:09:00,67.8,66.9,29.97,N/A,-737280,0.0,-999.0,97,0.00,,,0.00,Wunderground v.1.15,2013-09-09 06:09:00,
2013-09-09 02:14:00,67.8,66.9,29.97,N/A,-737280,0.0,-999.0,97,0.00,,,0.00,Wunderground v.1.15,2013-09-09 06:14:00,
2013-09-09 02:19:00,67.8,66.9,29.97,N/A,-737280,0.0,-999.0,97,0.00,,,0.00,Wunderground v.1.15,2013-09-09 06:19:00,
2013-09-09 02:24:00,67.6,66.7,29.97,N/A,-737280,0.0,-999.0,97,0.00,,,0.00,Wunderground v.1.15,2013-09-09 06:24:00,
2013-09-09 02:29:00,67.6,66.7,29.97,N/A,-737280,0.0,-999.0,97,0.00,,,0.00,Wunderground v.1.15,2013-09-09 06:29:00,
2013-09-09 02:34:00,67.6,66.7,29.97,N/A,-737280,0.0,-999.0,97,0.00,,,0.00,Wunderground v.1.15,2013-09-09 06:34:00,
2013-09-09 02:39:00,67.6,66.7,29.97,WNW,293,0.0,-999.0,97,0.00,,,0.00,Wunderground v.1.15,2013-09-09 06:39:00,
2013-09-09 02:44:00,67.6,66.7,29.97,WNW,293,0.0,-999.0,97,0.00,,,0.00,Wunderground v.1.15,2013-09-09 06:44:00,
2013-09-09 02:49:00,67.6,66.7,29.97,WNW,293,0.0,-999.0,97,0.00,,,0.00,Wunderground v.1.15,2013-09-09 06:49:00,
2013-09-09 02:54:00,67.2,66.3,29.97,N/A,-737280,0.0,-999.0,97,0.00,,,0.00,Wunderground v.1.15,2013-09-09 06:54:00,
2013-09-09 02:59:00,67.2,66.3,29.97,N/A,-737280,0.0,-999.0,97,0.00,,,0.00,Wunderground v.1.15,2013-09-09 06:59:00,
2013-09-09 03:04:00,67.2,66.3,29.97,N/A,-737280,0.0,-999.0,97,0.00,,,0.00,Wunderground v.1.15,2013-09-09 07:04:00,
2013-09-09 03:09:00,67.3,66.4,29.97,N/A,-737280,0.0,-999.0,97,0.00,,,0.00,Wunderground v.1.15,2013-09-09 07:09:00,
2013-09-09 03:14:00,67.3,66.4,29.97,N/A,-737280,0.0,-999.0,97,0.00,,,0.00,Wunderground v.1.15,2013-09-09 07:14:00,
2013-09-09 03:19:00,67.3,66.4,29.97,N/A,-737280,0.0,-999.0,97,0.00,,,0.00,Wunderground v.1.15,2013-09-09 07:19:00,
2013-09-09 03:24:00,67.0,66.1,29.97,N/A,-737280,0.0,-999.0,97,0.00,,,0.00,Wunderground v.1.15,2013-09-09 07:24:00,
2013-09-09 03:29:00,67.0,66.1,29.97,N/A,-737280,0.0,-999.0,97,0.00,,,0.00,Wunderground v.1.15,2013-09-09 07:29:00,
2013-09-09 03:34:00,67.0,66.1,29.97,N/A,-737280,0.0,-999.0,97,0.00,,,0.00,Wunderground v.1.15,2013-09-09 07:34:00,
2013-09-09 03:39:00,67.0,66.1,29.97,N/A,-737280,0.0,-999.0,97,0.00,,,0.00,Wunderground v.1.15,2013-09-09 07:39:00,
2013-09-09 03:44:00,67.0,66.1,29.97,N/A,-737280,0.0,-999.0,97,0.00,,,0.00,Wunderground v.1.15,2013-09-09 07:44:00,
2013-09-09 03:49:00,67.0,66.1,29.97,N/A,-737280,0.0,-999.0,97,0.00,,,0.00,Wunderground v.1.15,2013-09-09 07:49:00,
2013-09-09 03:54:00,66.9,66.0,29.97,N/A,-737280,0.0,-999.0,97,0.00,,,0.00,Wunderground v.1.15,2013-09-09 07:54:00,
2013-09-09 03:59:00,66.9,66.0,29.97,N/A,-737280,0.0,-999.0,97,0.00,,,0.00,Wunderground v.1.15,2013-09-09 07:59:00,
2013-09-09 04:04:00,66.9,66.0,29.97,N/A,-737280,0.0,-999.0,97,0.00,,,0.00,Wunderground v.1.15,2013-09-09 08:04:00,
2013-09-09 04:09:00,66.6,65.7,29.97,N/A,-737280,0.0,-999.0,97,0.00,,,0.00,Wunderground v.1.15,2013-09-09 08:09:00,
2013-09-09 04:14:00,66.6,65.7,29.97,N/A,-737280,0.0,-999.0,97,0.00,,,0.00,Wunderground v.1.15,2013-09-09 08:14:00,
2013-09-09 04:19:00,66.6,65.7,29.97,N/A,-737280,0.0,-999.0,97,0.00,,,0.00,Wunderground v.1.15,2013-09-09 08:19:00,
2013-09-09 04:24:00,66.4,65.5,29.97,N/A,-737280,0.0,-999.0,97,0.00,,,0.00,Wunderground v.1.15,2013-09-09 08:24:00,
2013-09-09 04:29:00,66.4,65.5,29.97,N/A,-737280,0.0,-999.0,97,0.00,,,0.00,Wunderground v.1.15,2013-09-09 08:29:00,
2013-09-09 04:34:00,66.4,65.5,29.97,N/A,-737280,0.0,-999.0,97,0.00,,,0.00,Wunderground v.1.15,2013-09-09 08:34:00,
2013-09-09 04:39:00,66.6,65.7,29.98,N/A,-737280,0.0,-999.0,97,0.00,,,0.00,Wunderground v.1.15,2013-09-09 08:39:00,
2013-09-09 04:44:00,66.6,65.7,29.98,N/A,-737280,0.0,-999.0,97,0.00,,,0.00,Wunderground v.1.15,2013-09-09 08:44:00,
2013-09-09 04:49:00,66.6,65.7,29.98,N/A,-737280,0.0,-999.0,97,0.00,,,0.00,Wunderground v.1.15,2013-09-09 08:49:00,
2013-09-09 04:54:00,66.5,65.6,29.98,N/A,-737280,0.0,-999.0,97,0.00,,,0.00,Wunderground v.1.15,2013-09-09 08:54:00,
2013-09-09 04:59:00,66.5,65.6,29.98,N/A,-737280,0.0,-999.0,97,0.00,,,0.00,Wunderground v.1.15,2013-09-09 08:59:00,
2013-09-09 05:04:00,66.5,65.6,29.98,N/A,-737280,0.0,-999.0,97,0.00,,,0.00,Wunderground v.1.15,2013-09-09 09:04:00,
2013-09-09 05:09:00,66.2,65.3,29.98,N/A,-737280,0.0,-999.0,97,0.00,,,0.00,Wunderground v.1.15,2013-09-09 09:09:00,
2013-09-09 05:14:00,66.2,65.3,29.98,N/A,-737280,0.0,-999.0,97,0.00,,,0.00,Wunderground v.1.15,2013-09-09 09:14:00,
2013-09-09 05:19:00,66.2,65.3,29.98,N/A,-737280,0.0,-999.0,97,0.00,,,0.00,Wunderground v.1.15,2013-09-09 09:19:00,
2013-09-09 05:24:00,66.1,65.2,29.99,N/A,-737280,0.0,-999.0,97,0.00,,,0.00,Wunderground v.1.15,2013-09-09 09:24:00,
2013-09-09 05:29:00,66.1,65.2,29.99,N/A,-737280,0.0,-999.0,97,0.00,,,0.00,Wunderground v.1.15,2013-09-09 09:29:00,
2013-09-09 05:34:00,66.1,65.2,29.99,N/A,-737280,0.0,-999.0,97,0.00,,,0.00,Wunderground v.1.15,2013-09-09 09:34:00,
2013-09-09 05:39:00,65.9,65.0,29.99,N/A,-737280,0.0,-999.0,97,0.00,,,0.00,Wunderground v.1.15,2013-09-09 09:39:00,
2013-09-09 05:44:00,65.9,65.0,29.99,N/A,-737280,0.0,-999.0,97,0.00,,,0.00,Wunderground v.1.15,2013-09-09 09:44:00,
2013-09-09 05:49:00,65.9,65.0,29.99,N/A,-737280,0.0,-999.0,97,0.00,,,0.00,Wunderground v.1.15,2013-09-09 09:49:00,
2013-09-09 05:54:00,66.0,65.1,29.99,N/A,-737280,0.0,-999.0,97,0.00,,,0.00,Wunderground v.1.15,2013-09-09 09:54:00,
2013-09-09 05:59:00,66.0,65.1,29.99,N/A,-737280,0.0,-999.0,97,0.00,,,0.00,Wunderground v.1.15,2013-09-09 09:59:00,
2013-09-09 06:04:00,66.0,65.1,29.99,N/A,-737280,0.0,-999.0,97,0.00,,,0.00,Wunderground v.1.15,2013-09-09 10:04:00,
2013-09-09 06:09:00,66.2,65.3,29.99,N/A,-737280,0.0,-999.0,97,0.00,,,0.00,Wunderground v.1.15,2013-09-09 10:09:00,
2013-09-09 06:14:00,66.2,65.3,29.99,N/A,-737280,0.0,-999.0,97,0.00,,,0.00,Wunderground v.1.15,2013-09-09 10:14:00,
2013-09-09 06:19:00,66.2,65.3,29.99,N/A,-737280,0.0,-999.0,97,0.00,,,0.00,Wunderground v.1.15,2013-09-09 10:19:00,
2013-09-09 06:24:00,65.6,64.7,29.99,N/A,-737280,0.0,-999.0,97,0.00,,,0.00,Wunderground v.1.15,2013-09-09 10:24:00,
2013-09-09 06:29:00,65.6,64.7,29.99,N/A,-737280,0.0,-999.0,97,0.00,,,0.00,Wunderground v.1.15,2013-09-09 10:29:00,
2013-09-09 06:34:00,65.6,64.7,29.99,N/A,-737280,0.0,-999.0,97,0.00,,,0.00,Wunderground v.1.15,2013-09-09 10:34:00,
2013-09-09 06:39:00,65.7,64.8,30.00,N/A,-737280,0.0,-999.0,97,0.00,,,0.00,Wunderground v.1.15,2013-09-09 10:39:00,
2013-09-09 06:44:00,65.7,64.8,30.00,N/A,-737280,0.0,-999.0,97,0.00,,,0.00,Wunderground v.1.15,2013-09-09 10:44:00,
2013-09-09 06:49:00,65.7,64.8,30.00,N/A,-737280,0.0,-999.0,97,0.00,,,0.00,Wunderground v.1.15,2013-09-09 10:49:00,
2013-09-09 06:54:00,65.7,64.8,30.00,N/A,-737280,0.0,-999.0,97,0.00,,,0.00,Wunderground v.1.15,2013-09-09 10:54:00,
2013-09-09 06:59:00,65.7,64.8,30.00,N/A,-737280,0.0,-999.0,97,0.00,,,0.00,Wunderground v.1.15,2013-09-09 10:59:00,
2013-09-09 07:04:00,65.7,64.8,30.00,N/A,-737280,0.0,-999.0,97,0.00,,,0.00,Wunderground v.1.15,2013-09-09 11:04:00,
2013-09-09 07:09:00,65.6,64.7,30.01,N/A,-737280,0.0,-999.0,97,0.00,,,0.00,Wunderground v.1.15,2013-09-09 11:09:00,
2013-09-09 07:14:00,65.6,64.7,30.01,N/A,-737280,0.0,-999.0,97,0.00,,,0.00,Wunderground v.1.15,2013-09-09 11:14:00,
2013-09-09 07:19:00,65.6,64.7,30.01,N/A,-737280,0.0,-999.0,97,0.00,,,0.00,Wunderground v.1.15,2013-09-09 11:19:00,
2013-09-09 07:24:00,66.2,65.6,30.01,N/A,-737280,0.0,-999.0,98,0.00,,,0.00,Wunderground v.1.15,2013-09-09 11:24:00,
2013-09-09 07:29:00,66.2,65.6,30.01,N/A,-737280,0.0,-999.0,98,0.00,,,0.00,Wunderground v.1.15,2013-09-09 11:29:00,
2013-09-09 07:34:00,66.2,65.6,30.01,N/A,-737280,0.0,-999.0,98,0.00,,,0.00,Wunderground v.1.15,2013-09-09 11:34:00,
2013-09-09 07:39:00,66.0,65.4,30.01,N/A,-737280,0.0,-999.0,98,0.00,,,0.00,Wunderground v.1.15,2013-09-09 11:39:00,
2013-09-09 07:44:00,66.0,65.4,30.01,N/A,-737280,0.0,-999.0,98,0.00,,,0.00,Wunderground v.1.15,2013-09-09 11:44:00,
2013-09-09 07:49:00,66.0,65.4,30.01,N/A,-737280,0.0,-999.0,98,0.00,,,0.00,Wunderground v.1.15,2013-09-09 11:49:00,
2013-09-09 07:54:00,66.8,66.2,30.01,N/A,-737280,0.0,-999.0,98,0.00,,,0.00,Wunderground v.1.15,2013-09-09 11:54:00,
2013-09-09 07:59:00,66.8,66.2,30.01,N/A,-737280,0.0,-999.0,98,0.00,,,0.00,Wunderground v.1.15,2013-09-09 11:59:00,
2013-09-09 08:04:00,66.8,66.2,30.01,N/A,-737280,0.0,-999.0,98,0.00,,,0.00,Wunderground v.1.15,2013-09-09 12:04:00,
2013-09-09 08:09:00,68.6,68.0,30.02,N/A,-737280,0.0,-999.0,98,0.00,,,0.00,Wunderground v.1.15,2013-09-09 12:09:00,
2013-09-09 08:14:00,68.6,68.0,30.02,N/A,-737280,0.0,-999.0,98,0.00,,,0.00,Wunderground v.1.15,2013-09-09 12:14:00,
2013-09-09 08:19:00,68.6,68.0,30.02,N/A,-737280,0.0,-999.0,98,0.00,,,0.00,Wunderground v.1.15,2013-09-09 12:19:00,
2013-09-09 08:24:00,70.1,68.3,30.02,WNW,293,0.0,-999.0,94,0.00,,,0.00,Wunderground v.1.15,2013-09-09 12:24:00,
2013-09-09 08:29:00,70.1,68.3,30.02,WNW,293,0.0,-999.0,94,0.00,,,0.00,Wunderground v.1.15,2013-09-09 12:29:00,
2013-09-09 08:34:00,70.1,68.3,30.02,WNW,293,0.0,-999.0,94,0.00,,,0.00,Wunderground v.1.15,2013-09-09 12:34:00,
2013-09-09 08:39:00,71.1,69.0,30.03,North,0,1.0,-999.0,93,0.00,,,0.00,Wunderground v.1.15,2013-09-09 12:39:00,
2013-09-09 08:44:00,71.1,69.0,30.03,North,0,1.0,-999.0,93,0.00,,,0.00,Wunderground v.1.15,2013-09-09 12:44:00,
2013-09-09 08:49:00,71.1,69.0,30.03,North,0,1.0,-999.0,93,0.00,,,0.00,Wunderground v.1.15,2013-09-09 12:49:00,
2013-09-09 08:54:00,72.2,69.4,30.03,NNE,23,1.0,-999.0,91,0.00,,,0.00,Wunderground v.1.15,2013-09-09 12:54:00,
2013-09-09 08:59:00,72.2,69.4,30.03,NNE,23,1.0,-999.0,91,0.00,,,0.00,Wunderground v.1.15,2013-09-09 12:59:00,
2013-09-09 09:04:00,72.2,69.4,30.03,NNE,23,1.0,-999.0,91,0.00,,,0.00,Wunderground v.1.15,2013-09-09 13:04:00,
2013-09-09 09:09:00,73.3,70.2,30.03,NNE,23,1.0,-999.0,90,0.00,,,0.00,Wunderground v.1.15,2013-09-09 13:09:00,
2013-09-09 09:14:00,73.3,70.2,30.03,NNE,23,1.0,-999.0,90,0.00,,,0.00,Wunderground v.1.15,2013-09-09 13:14:00,
2013-09-09 09:19:00,73.3,70.2,30.03,NNE,23,1.0,-999.0,90,0.00,,,0.00,Wunderground v.1.15,2013-09-09 13:19:00,
2013-09-09 09:24:00,74.4,70.6,30.03,NE,45,2.0,-999.0,88,0.00,,,0.00,Wunderground v.1.15,2013-09-09 13:24:00,
2013-09-09 09:29:00,74.4,70.6,30.03,NE,45,2.0,-999.0,88,0.00,,,0.00,Wunderground v.1.15,2013-09-09 13:29:00,
2013-09-09 09:34:00,74.4,70.6,30.03,NE,45,2.0,-999.0,88,0.00,,,0.00,Wunderground v.1.15,2013-09-09 13:34:00,
2013-09-09 09:39:00,75.7,71.2,30.04,NE,45,3.0,-999.0,86,0.00,,,0.00,Wunderground v.1.15,2013-09-09 13:39:00,
2013-09-09 09:44:00,75.7,71.2,30.04,NE,45,3.0,-999.0,86,0.00,,,0.00,Wunderground v.1.15,2013-09-09 13:44:00,
2013-09-09 09:49:00,75.7,71.2,30.04,NE,45,3.0,-999.0,86,0.00,,,0.00,Wunderground v.1.15,2013-09-09 13:49:00,
2013-09-09 09:54:00,77.1,71.5,30.04,ENE,68,4.0,-999.0,83,0.00,,,0.00,Wunderground v.1.15,2013-09-09 13:54:00,
2013-09-09 09:59:00,77.1,71.5,30.04,ENE,68,4.0,-999.0,83,0.00,,,0.00,Wunderground v.1.15,2013-09-09 13:59:00,
2013-09-09 10:04:00,77.1,71.5,30.04,ENE,68,4.0,-999.0,83,0.00,,,0.00,Wunderground v.1.15,2013-09-09 14:04:00,
2013-09-09 10:09:00,77.5,70.8,30.04,ENE,68,4.0,-999.0,80,0.00,,,0.00,Wunderground v.1.15,2013-09-09 14:09:00,
2013-09-09 10:14:00,77.5,70.8,30.04,ENE,68,4.0,-999.0,80,0.00,,,0.00,Wunderground v.1.15,2013-09-09 14:14:00,
2013-09-09 10:19:00,77.5,70.8,30.04,ENE,68,4.0,-999.0,80,0.00,,,0.00,Wunderground v.1.15,2013-09-09 14:19:00,
2013-09-09 10:24:00,78.7,72.4,30.05,East,90,3.0,-999.0,81,0.00,,,0.00,Wunderground v.1.15,2013-09-09 14:24:00,
2013-09-09 10:29:00,78.7,72.4,30.05,East,90,3.0,-999.0,81,0.00,,,0.00,Wunderground v.1.15,2013-09-09 14:29:00,
2013-09-09 10:34:00,78.7,72.4,30.05,East,90,3.0,-999.0,81,0.00,,,0.00,Wunderground v.1.15,2013-09-09 14:34:00,
2013-09-09 10:39:00,79.7,69.9,30.05,NE,45,4.0,-999.0,72,0.00,,,0.00,Wunderground v.1.15,2013-09-09 14:39:00,
2013-09-09 10:44:00,79.7,69.9,30.05,NE,45,4.0,-999.0,72,0.00,,,0.00,Wunderground v.1.15,2013-09-09 14:44:00,
2013-09-09 10:49:00,79.7,69.9,30.05,NE,45,4.0,-999.0,72,0.00,,,0.00,Wunderground v.1.15,2013-09-09 14:49:00,
2013-09-09 10:54:00,80.6,71.9,30.06,ENE,68,4.0,-999.0,75,0.00,,,0.00,Wunderground v.1.15,2013-09-09 14:54:00,
2013-09-09 10:59:00,80.6,71.9,30.06,ENE,68,4.0,-999.0,75,0.00,,,0.00,Wunderground v.1.15,2013-09-09 14:59:00,
2013-09-09 11:04:00,80.6,71.9,30.06,ENE,68,4.0,-999.0,75,0.00,,,0.00,Wunderground v.1.15,2013-09-09 15:04:00,
2013-09-09 11:09:00,80.9,71.0,30.06,ENE,68,4.0,-999.0,72,0.00,,,0.00,Wunderground v.1.15,2013-09-09 15:09:00,
2013-09-09 11:14:00,80.9,71.0,30.06,ENE,68,4.0,-999.0,72,0.00,,,0.00,Wunderground v.1.15,2013-09-09 15:14:00,
2013-09-09 11:19:00,80.9,71.0,30.06,ENE,68,4.0,-999.0,72,0.00,,,0.00,Wunderground v.1.15,2013-09-09 15:19:00,
2013-09-09 11:24:00,82.0,70.0,30.06,ENE,68,5.0,-999.0,67,0.00,,,0.00,Wunderground v.1.15,2013-09-09 15:24:00,
2013-09-09 11:29:00,82.0,70.0,30.06,ENE,68,5.0,-999.0,67,0.00,,,0.00,Wunderground v.1.15,2013-09-09 15:29:00,
2013-09-09 11:34:00,82.0,70.0,30.06,ENE,68,5.0,-999.0,67,0.00,,,0.00,Wunderground v.1.15,2013-09-09 15:34:00,
2013-09-09 11:36:00,82.0,70.0,30.06,ENE,68,5.0,-999.0,67,0.00,,,0.00,Wunderground v.1.15,2013-09-09 15:36:00,
2013-09-09 11:39:00,82.2,71.0,30.06,ENE,68,5.0,-999.0,69,0.00,,,0.00,Wunderground v.1.15,2013-09-09 15:39:00,
2013-09-09 11:41:00,82.2,71.0,30.06,ENE,68,5.0,-999.0,69,0.00,,,0.00,Wunderground v.1.15,2013-09-09 15:41:00,
2013-09-09 11:44:00,82.2,71.0,30.06,ENE,68,5.0,-999.0,69,0.00,,,0.00,Wunderground v.1.15,2013-09-09 15:44:00,
2013-09-09 11:46:00,82.2,71.0,30.06,ENE,68,5.0,-999.0,69,0.00,,,0.00,Wunderground v.1.15,2013-09-09 15:46:00,
2013-09-09 11:49:00,82.2,71.0,30.06,ENE,68,5.0,-999.0,69,0.00,,,0.00,Wunderground v.1.15,2013-09-09 15:49:00,
2013-09-09 11:51:00,82.2,71.0,30.06,ENE,68,5.0,-999.0,69,0.00,,,0.00,Wunderground v.1.15,2013-09-09 15:51:00,
2013-09-09 11:54:00,82.9,71.3,30.06,East,90,4.0,-999.0,68,0.00,,,0.00,Wunderground v.1.15,2013-09-09 15:54:00,
2013-09-09 11:56:00,82.9,71.3,30.06,East,90,4.0,-999.0,68,0.00,,,0.00,Wunderground v.1.15,2013-09-09 15:56:00,
2013-09-09 11:59:00,82.9,71.3,30.06,East,90,4.0,-999.0,68,0.00,,,0.00,Wunderground v.1.15,2013-09-09 15:59:00,
2013-09-09 12:01:00,82.9,71.3,30.06,East,90,4.0,-999.0,68,0.00,,,0.00,Wunderground v.1.15,2013-09-09 16:01:00,
2013-09-09 12:04:00,82.9,71.3,30.06,East,90,4.0,-999.0,68,0.00,,,0.00,Wunderground v.1.15,2013-09-09 16:04:00,
2013-09-09 12:06:00,82.9,71.3,30.06,East,90,4.0,-999.0,68,0.00,,,0.00,Wunderground v.1.15,2013-09-09 16:06:00,
2013-09-09 12:09:00,83.7,71.1,30.06,ESE,113,5.0,-999.0,66,0.00,,,0.00,Wunderground v.1.15,2013-09-09 16:09:00,
2013-09-09 12:11:00,83.7,71.1,30.06,ESE,113,5.0,-999.0,66,0.00,,,0.00,Wunderground v.1.15,2013-09-09 16:11:00,
2013-09-09 12:14:00,83.7,71.1,30.06,ESE,113,5.0,-999.0,66,0.00,,,0.00,Wunderground v.1.15,2013-09-09 16:14:00,
2013-09-09 12:16:00,83.7,71.1,30.06,ESE,113,5.0,-999.0,66,0.00,,,0.00,Wunderground v.1.15,2013-09-09 16:16:00,
2013-09-09 12:19:00,83.7,71.1,30.06,ESE,113,5.0,-999.0,66,0.00,,,0.00,Wunderground v.1.15,2013-09-09 16:19:00,
2013-09-09 12:21:00,83.7,71.1,30.06,ESE,113,5.0,-999.0,66,0.00,,,0.00,Wunderground v.1.15,2013-09-09 16:21:00,
2013-09-09 12:24:00,83.9,70.9,30.06,East,90,5.0,-999.0,65,0.00,,,0.00,Wunderground v.1.15,2013-09-09 16:24:00,
2013-09-09 12:26:00,83.9,70.9,30.06,East,90,5.0,-999.0,65,0.00,,,0.00,Wunderground v.1.15,2013-09-09 16:26:00,
2013-09-09 12:29:00,83.9,70.9,30.06,East,90,5.0,-999.0,65,0.00,,,0.00,Wunderground v.1.15,2013-09-09 16:29:00,
2013-09-09 12:31:00,83.9,70.9,30.06,East,90,5.0,-999.0,65,0.00,,,0.00,Wunderground v.1.15,2013-09-09 16:31:00,
2013-09-09 12:34:00,83.9,70.9,30.06,East,90,5.0,-999.0,65,0.00,,,0.00,Wunderground v.1.15,2013-09-09 16:34:00,
2013-09-09 12:36:00,83.9,70.9,30.06,East,90,5.0,-999.0,65,0.00,,,0.00,Wunderground v.1.15,2013-09-09 16:36:00,
2013-09-09 12:39:00,84.3,69.9,30.06,East,90,6.0,-999.0,62,0.00,,,0.00,Wunderground v.1.15,2013-09-09 16:39:00,
2013-09-09 12:41:00,84.3,69.9,30.06,East,90,6.0,-999.0,62,0.00,,,0.00,Wunderground v.1.15,2013-09-09 16:41:00,
2013-09-09 12:44:00,84.3,69.9,30.06,East,90,6.0,-999.0,62,0.00,,,0.00,Wunderground v.1.15,2013-09-09 16:44:00,
2013-09-09 12:46:00,84.3,69.9,30.06,East,90,6.0,-999.0,62,0.00,,,0.00,Wunderground v.1.15,2013-09-09 16:46:00,
2013-09-09 12:49:00,84.3,69.9,30.06,East,90,6.0,-999.0,62,0.00,,,0.00,Wunderground v.1.15,2013-09-09 16:49:00,
2013-09-09 12:51:00,84.3,69.9,30.06,East,90,6.0,-999.0,62,0.00,,,0.00,Wunderground v.1.15,2013-09-09 16:51:00,
2013-09-09 12:54:00,84.7,70.7,30.05,East,90,5.0,-999.0,63,0.00,,,0.00,Wunderground v.1.15,2013-09-09 16:54:00,
2013-09-09 12:56:00,84.7,70.7,30.05,East,90,5.0,-999.0,63,0.00,,,0.00,Wunderground v.1.15,2013-09-09 16:56:00,
2013-09-09 12:59:00,84.7,70.7,30.05,East,90,5.0,-999.0,63,0.00,,,0.00,Wunderground v.1.15,2013-09-09 16:59:00,
2013-09-09 13:01:00,84.7,70.7,30.05,East,90,5.0,-999.0,63,0.00,,,0.00,Wunderground v.1.15,2013-09-09 17:01:00,
2013-09-09 13:04:00,84.7,70.7,30.05,East,90,5.0,-999.0,63,0.00,,,0.00,Wunderground v.1.15,2013-09-09 17:04:00,
2013-09-09 13:06:00,84.7,70.7,30.05,East,90,5.0,-999.0,63,0.00,,,0.00,Wunderground v.1.15,2013-09-09 17:06:00,
2013-09-09 13:09:00,85.0,72.4,30.05,East,90,5.0,-999.0,66,0.00,,,0.00,Wunderground v.1.15,2013-09-09 17:09:00,
2013-09-09 13:11:00,85.0,72.4,30.05,East,90,5.0,-999.0,66,0.00,,,0.00,Wunderground v.1.15,2013-09-09 17:11:00,
2013-09-09 13:14:00,85.0,72.4,30.05,East,90,5.0,-999.0,66,0.00,,,0.00,Wunderground v.1.15,2013-09-09 17:14:00,
2013-09-09 13:16:00,85.0,72.4,30.05,East,90,5.0,-999.0,66,0.00,,,0.00,Wunderground v.1.15,2013-09-09 17:16:00,
2013-09-09 13:19:00,85.0,72.4,30.05,East,90,5.0,-999.0,66,0.00,,,0.00,Wunderground v.1.15,2013-09-09 17:19:00,
2013-09-09 13:21:00,85.0,72.4,30.05,East,90,5.0,-999.0,66,0.00,,,0.00,Wunderground v.1.15,2013-09-09 17:21:00,
2013-09-09 13:24:00,84.7,70.7,30.05,East,90,7.0,-999.0,63,0.00,,,0.00,Wunderground v.1.15,2013-09-09 17:24:00,
2013-09-09 13:26:00,84.7,70.7,30.05,East,90,7.0,-999.0,63,0.00,,,0.00,Wunderground v.1.15,2013-09-09 17:26:00,
2013-09-09 13:29:00,84.7,70.7,30.05,East,90,7.0,-999.0,63,0.00,,,0.00,Wunderground v.1.15,2013-09-09 17:29:00,
2013-09-09 13:31:00,84.7,70.7,30.05,East,90,7.0,-999.0,63,0.00,,,0.00,Wunderground v.1.15,2013-09-09 17:31:00,
2013-09-09 13:34:00,84.7,70.7,30.05,East,90,7.0,-999.0,63,0.00,,,0.00,Wunderground v.1.15,2013-09-09 17:34:00,
2013-09-09 13:36:00,84.7,70.7,30.05,East,90,7.0,-999.0,63,0.00,,,0.00,Wunderground v.1.15,2013-09-09 17:36:00,
2013-09-09 13:39:00,84.4,70.4,30.05,East,90,5.0,-999.0,63,0.00,,,0.00,Wunderground v.1.15,2013-09-09 17:39:00,
2013-09-09 13:41:00,84.4,70.4,30.05,East,90,5.0,-999.0,63,0.00,,,0.00,Wunderground v.1.15,2013-09-09 17:41:00,
2013-09-09 13:44:00,84.4,70.4,30.05,East,90,5.0,-999.0,63,0.00,,,0.00,Wunderground v.1.15,2013-09-09 17:44:00,
2013-09-09 13:46:00,84.4,70.4,30.05,East,90,5.0,-999.0,63,0.00,,,0.00,Wunderground v.1.15,2013-09-09 17:46:00,
2013-09-09 13:49:00,84.4,70.4,30.05,East,90,5.0,-999.0,63,0.00,,,0.00,Wunderground v.1.15,2013-09-09 17:49:00,
2013-09-09 13:51:00,84.4,70.4,30.05,East,90,5.0,-999.0,63,0.00,,,0.00,Wunderground v.1.15,2013-09-09 17:51:00,
2013-09-09 13:54:00,85.3,71.3,30.05,East,90,5.0,-999.0,63,0.00,,,0.00,Wunderground v.1.15,2013-09-09 17:54:00,
2013-09-09 13:56:00,85.3,71.3,30.05,East,90,5.0,-999.0,63,0.00,,,0.00,Wunderground v.1.15,2013-09-09 17:56:00,
2013-09-09 13:59:00,85.3,71.3,30.05,East,90,5.0,-999.0,63,0.00,,,0.00,Wunderground v.1.15,2013-09-09 17:59:00,
2013-09-09 14:01:00,85.3,71.3,30.05,East,90,5.0,-999.0,63,0.00,,,0.00,Wunderground v.1.15,2013-09-09 18:01:00,
2013-09-09 14:04:00,85.3,71.3,30.05,East,90,5.0,-999.0,63,0.00,,,0.00,Wunderground v.1.15,2013-09-09 18:04:00,
2013-09-09 14:06:00,85.3,71.3,30.05,East,90,5.0,-999.0,63,0.00,,,0.00,Wunderground v.1.15,2013-09-09 18:06:00,
2013-09-09 14:09:00,85.5,70.0,30.05,East,90,5.0,-999.0,60,0.00,,,0.00,Wunderground v.1.15,2013-09-09 18:09:00,
2013-09-09 14:11:00,85.5,70.0,30.05,East,90,5.0,-999.0,60,0.00,,,0.00,Wunderground v.1.15,2013-09-09 18:11:00,
2013-09-09 14:14:00,85.5,70.0,30.05,East,90,5.0,-999.0,60,0.00,,,0.00,Wunderground v.1.15,2013-09-09 18:14:00,
2013-09-09 14:16:00,85.5,70.0,30.05,East,90,5.0,-999.0,60,0.00,,,0.00,Wunderground v.1.15,2013-09-09 18:16:00,
2013-09-09 14:19:00,85.5,70.0,30.05,East,90,5.0,-999.0,60,0.00,,,0.00,Wunderground v.1.15,2013-09-09 18:19:00,
2013-09-09 14:21:00,85.5,70.0,30.05,East,90,5.0,-999.0,60,0.00,,,0.00,Wunderground v.1.15,2013-09-09 18:21:00,
2013-09-09 14:24:00,85.8,70.3,30.05,East,90,6.0,-999.0,60,0.00,,,0.00,Wunderground v.1.15,2013-09-09 18:24:00,
2013-09-09 14:26:00,85.8,70.3,30.05,East,90,6.0,-999.0,60,0.00,,,0.00,Wunderground v.1.15,2013-09-09 18:26:00,
2013-09-09 14:29:00,85.8,70.3,30.05,East,90,6.0,-999.0,60,0.00,,,0.00,Wunderground v.1.15,2013-09-09 18:29:00,
2013-09-09 14:31:00,85.8,70.3,30.05,East,90,6.0,-999.0,60,0.00,,,0.00,Wunderground v.1.15,2013-09-09 18:31:00,
2013-09-09 14:34:00,85.8,70.3,30.05,East,90,6.0,-999.0,60,0.00,,,0.00,Wunderground v.1.15,2013-09-09 18:34:00,
2013-09-09 14:36:00,85.8,70.3,30.05,East,90,6.0,-999.0,60,0.00,,,0.00,Wunderground v.1.15,2013-09-09 18:36:00,
2013-09-09 14:39:00,86.3,71.7,30.04,SE,135,4.0,-999.0,62,0.00,,,0.00,Wunderground v.1.15,2013-09-09 18:39:00,
2013-09-09 14:41:00,86.3,71.7,30.04,SE,135,4.0,-999.0,62,0.00,,,0.00,Wunderground v.1.15,2013-09-09 18:41:00,
2013-09-09 14:44:00,86.3,71.7,30.04,SE,135,4.0,-999.0,62,0.00,,,0.00,Wunderground v.1.15,2013-09-09 18:44:00,
2013-09-09 14:46:00,86.3,71.7,30.04,SE,135,4.0,-999.0,62,0.00,,,0.00,Wunderground v.1.15,2013-09-09 18:46:00,
2013-09-09 14:49:00,86.3,71.7,30.04,SE,135,4.0,-999.0,62,0.00,,,0.00,Wunderground v.1.15,2013-09-09 18:49:00,
2013-09-09 14:51:00,86.3,71.7,30.04,SE,135,4.0,-999.0,62,0.00,,,0.00,Wunderground v.1.15,2013-09-09 18:51:00,
2013-09-09 14:54:00,85.4,70.9,30.04,ENE,68,6.0,-999.0,62,0.00,,,0.00,Wunderground v.1.15,2013-09-09 18:54:00,
2013-09-09 14:56:00,85.4,70.9,30.04,ENE,68,6.0,-999.0,62,0.00,,,0.00,Wunderground v.1.15,2013-09-09 18:56:00,
2013-09-09 14:59:00,85.4,70.9,30.04,ENE,68,6.0,-999.0,62,0.00,,,0.00,Wunderground v.1.15,2013-09-09 18:59:00,
2013-09-09 15:01:00,85.4,70.9,30.04,ENE,68,6.0,-999.0,62,0.00,,,0.00,Wunderground v.1.15,2013-09-09 19:01:00,
2013-09-09 15:04:00,85.4,70.9,30.04,ENE,68,6.0,-999.0,62,0.00,,,0.00,Wunderground v.1.15,2013-09-09 19:04:00,
2013-09-09 15:06:00,85.4,70.9,30.04,ENE,68,6.0,-999.0,62,0.00,,,0.00,Wunderground v.1.15,2013-09-09 19:06:00,
2013-09-09 15:09:00,83.7,70.7,30.04,ENE,68,5.0,-999.0,65,0.00,,,0.00,Wunderground v.1.15,2013-09-09 19:09:00,
2013-09-09 15:11:00,83.7,70.7,30.04,ENE,68,5.0,-999.0,65,0.00,,,0.00,Wunderground v.1.15,2013-09-09 19:11:00,
2013-09-09 15:14:00,83.7,70.7,30.04,ENE,68,5.0,-999.0,65,0.00,,,0.00,Wunderground v.1.15,2013-09-09 19:14:00,
2013-09-09 15:16:00,83.7,70.7,30.04,ENE,68,5.0,-999.0,65,0.00,,,0.00,Wunderground v.1.15,2013-09-09 19:16:00,
2013-09-09 15:19:00,83.7,70.7,30.04,ENE,68,5.0,-999.0,65,0.00,,,0.00,Wunderground v.1.15,2013-09-09 19:19:00,
2013-09-09 15:21:00,83.7,70.7,30.04,ENE,68,5.0,-999.0,65,0.00,,,0.00,Wunderground v.1.15,2013-09-09 19:21:00,
2013-09-09 15:24:00,83.1,70.6,30.04,ENE,68,4.0,-999.0,66,0.00,,,0.00,Wunderground v.1.15,2013-09-09 19:24:00,
2013-09-09 15:26:00,83.1,70.6,30.04,ENE,68,4.0,-999.0,66,0.00,,,0.00,Wunderground v.1.15,2013-09-09 19:26:00,
2013-09-09 15:29:00,83.1,70.6,30.04,ENE,68,4.0,-999.0,66,0.00,,,0.00,Wunderground v.1.15,2013-09-09 19:29:00,
2013-09-09 15:31:00,83.1,70.6,30.04,ENE,68,4.0,-999.0,66,0.00,,,0.00,Wunderground v.1.15,2013-09-09 19:31:00,
2013-09-09 15:34:00,83.1,70.6,30.04,ENE,68,4.0,-999.0,66,0.00,,,0.00,Wunderground v.1.15,2013-09-09 19:34:00,
2013-09-09 15:36:00,83.1,70.6,30.04,ENE,68,4.0,-999.0,66,0.00,,,0.00,Wunderground v.1.15,2013-09-09 19:36:00,
2013-09-09 15:39:00,85.2,70.7,30.04,ENE,68,5.0,-999.0,62,0.00,,,0.00,Wunderground v.1.15,2013-09-09 19:39:00,
2013-09-09 15:41:00,85.2,70.7,30.04,ENE,68,5.0,-999.0,62,0.00,,,0.00,Wunderground v.1.15,2013-09-09 19:41:00,
2013-09-09 15:44:00,85.2,70.7,30.04,ENE,68,5.0,-999.0,62,0.00,,,0.00,Wunderground v.1.15,2013-09-09 19:44:00,
2013-09-09 15:46:00,85.2,70.7,30.04,ENE,68,5.0,-999.0,62,0.00,,,0.00,Wunderground v.1.15,2013-09-09 19:46:00,
2013-09-09 15:49:00,85.2,70.7,30.04,ENE,68,5.0,-999.0,62,0.00,,,0.00,Wunderground v.1.15,2013-09-09 19:49:00,
2013-09-09 15:51:00,85.2,70.7,30.04,ENE,68,5.0,-999.0,62,0.00,,,0.00,Wunderground v.1.15,2013-09-09 19:51:00,
2013-09-09 15:54:00,86.0,69.5,30.03,East,90,4.0,-999.0,58,0.00,,,0.00,Wunderground v.1.15,2013-09-09 19:54:00,
2013-09-09 15:56:00,86.0,69.5,30.03,East,90,4.0,-999.0,58,0.00,,,0.00,Wunderground v.1.15,2013-09-09 19:56:00,
2013-09-09 15:59:00,86.0,69.5,30.03,East,90,4.0,-999.0,58,0.00,,,0.00,Wunderground v.1.15,2013-09-09 19:59:00,
2013-09-09 16:01:00,86.0,69.5,30.03,East,90,4.0,-999.0,58,0.00,,,0.00,Wunderground v.1.15,2013-09-09 20:01:00,
2013-09-09 16:04:00,86.0,69.5,30.03,East,90,4.0,-999.0,58,0.00,,,0.00,Wunderground v.1.15,2013-09-09 20:04:00,
2013-09-09 16:06:00,86.0,69.5,30.03,East,90,4.0,-999.0,58,0.00,,,0.00,Wunderground v.1.15,2013-09-09 20:06:00,
2013-09-09 16:09:00,86.0,69.5,30.03,East,90,4.0,-999.0,58,0.00,,,0.00,Wunderground v.1.15,2013-09-09 20:09:00,
2013-09-09 16:11:00,86.0,69.5,30.03,East,90,4.0,-999.0,58,0.00,,,0.00,Wunderground v.1.15,2013-09-09 20:11:00,
2013-09-09 16:14:00,86.0,69.5,30.03,East,90,4.0,-999.0,58,0.00,,,0.00,Wunderground v.1.15,2013-09-09 20:14:00,
2013-09-09 16:16:00,86.0,69.5,30.03,East,90,4.0,-999.0,58,0.00,,,0.00,Wunderground v.1.15,2013-09-09 20:16:00,
2013-09-09 16:19:00,86.0,69.5,30.03,East,90,4.0,-999.0,58,0.00,,,0.00,Wunderground v.1.15,2013-09-09 20:19:00,
2013-09-09 16:21:00,86.0,69.5,30.03,East,90,4.0,-999.0,58,0.00,,,0.00,Wunderground v.1.15,2013-09-09 20:21:00,
2013-09-09 16:24:00,86.0,70.5,30.03,SE,135,4.0,-999.0,60,0.00,,,0.00,Wunderground v.1.15,2013-09-09 20:24:00,
2013-09-09 16:26:00,86.0,70.5,30.03,SE,135,4.0,-999.0,60,0.00,,,0.00,Wunderground v.1.15,2013-09-09 20:26:00,
2013-09-09 16:29:00,86.0,70.5,30.03,SE,135,4.0,-999.0,60,0.00,,,0.00,Wunderground v.1.15,2013-09-09 20:29:00,
2013-09-09 16:31:00,86.0,70.5,30.03,SE,135,4.0,-999.0,60,0.00,,,0.00,Wunderground v.1.15,2013-09-09 20:31:00,
2013-09-09 16:34:00,86.0,70.5,30.03,SE,135,4.0,-999.0,60,0.00,,,0.00,Wunderground v.1.15,2013-09-09 20:34:00,
2013-09-09 16:36:00,86.0,70.5,30.03,SE,135,4.0,-999.0,60,0.00,,,0.00,Wunderground v.1.15,2013-09-09 20:36:00,
2013-09-09 16:39:00,86.0,71.0,30.03,ESE,113,4.0,-999.0,61,0.00,,,0.00,Wunderground v.1.15,2013-09-09 20:39:00,
2013-09-09 16:41:00,86.0,71.0,30.03,ESE,113,4.0,-999.0,61,0.00,,,0.00,Wunderground v.1.15,2013-09-09 20:41:00,
2013-09-09 16:44:00,86.0,71.0,30.03,ESE,113,4.0,-999.0,61,0.00,,,0.00,Wunderground v.1.15,2013-09-09 20:44:00,
2013-09-09 16:46:00,86.0,71.0,30.03,ESE,113,4.0,-999.0,61,0.00,,,0.00,Wunderground v.1.15,2013-09-09 20:46:00,
2013-09-09 16:49:00,86.0,71.0,30.03,ESE,113,4.0,-999.0,61,0.00,,,0.00,Wunderground v.1.15,2013-09-09 20:49:00,
2013-09-09 16:51:00,86.0,71.0,30.03,ESE,113,4.0,-999.0,61,0.00,,,0.00,Wunderground v.1.15,2013-09-09 20:51:00,
2013-09-09 16:54:00,85.6,69.1,30.02,ESE,113,4.0,-999.0,58,0.00,,,0.00,Wunderground v.1.15,2013-09-09 20:54:00,
2013-09-09 16:56:00,85.6,69.1,30.02,ESE,113,4.0,-999.0,58,0.00,,,0.00,Wunderground v.1.15,2013-09-09 20:56:00,
2013-09-09 16:59:00,85.6,69.1,30.02,ESE,113,4.0,-999.0,58,0.00,,,0.00,Wunderground v.1.15,2013-09-09 20:59:00,
2013-09-09 17:01:00,85.6,69.1,30.02,ESE,113,4.0,-999.0,58,0.00,,,0.00,Wunderground v.1.15,2013-09-09 21:01:00,
2013-09-09 17:04:00,85.6,69.1,30.02,ESE,113,4.0,-999.0,58,0.00,,,0.00,Wunderground v.1.15,2013-09-09 21:04:00,
2013-09-09 17:06:00,85.6,69.1,30.02,ESE,113,4.0,-999.0,58,0.00,,,0.00,Wunderground v.1.15,2013-09-09 21:06:00,
2013-09-09 17:09:00,85.3,69.3,30.02,ESE,113,4.0,-999.0,59,0.00,,,0.00,Wunderground v.1.15,2013-09-09 21:09:00,
2013-09-09 17:11:00,85.3,69.3,30.02,ESE,113,4.0,-999.0,59,0.00,,,0.00,Wunderground v.1.15,2013-09-09 21:11:00,
2013-09-09 17:14:00,85.3,69.3,30.02,ESE,113,4.0,-999.0,59,0.00,,,0.00,Wunderground v.1.15,2013-09-09 21:14:00,
2013-09-09 17:16:00,85.3,69.3,30.02,ESE,113,4.0,-999.0,59,0.00,,,0.00,Wunderground v.1.15,2013-09-09 21:16:00,
2013-09-09 17:19:00,85.3,69.3,30.02,ESE,113,4.0,-999.0,59,0.00,,,0.00,Wunderground v.1.15,2013-09-09 21:19:00,
2013-09-09 17:21:00,85.3,69.3,30.02,ESE,113,4.0,-999.0,59,0.00,,,0.00,Wunderground v.1.15,2013-09-09 21:21:00,
2013-09-09 17:24:00,85.0,68.6,30.03,ESE,113,3.0,-999.0,58,0.00,,,0.00,Wunderground v.1.15,2013-09-09 21:24:00,
2013-09-09 17:26:00,85.0,68.6,30.03,ESE,113,3.0,-999.0,58,0.00,,,0.00,Wunderground v.1.15,2013-09-09 21:26:00,
2013-09-09 17:29:00,85.0,68.6,30.03,ESE,113,3.0,-999.0,58,0.00,,,0.00,Wunderground v.1.15,2013-09-09 21:29:00,
2013-09-09 17:31:00,85.0,68.6,30.03,ESE,113,3.0,-999.0,58,0.00,,,0.00,Wunderground v.1.15,2013-09-09 21:31:00,
2013-09-09 17:34:00,85.0,68.6,30.03,ESE,113,3.0,-999.0,58,0.00,,,0.00,Wunderground v.1.15,2013-09-09 21:34:00,
2013-09-09 17:36:00,85.0,68.6,30.03,ESE,113,3.0,-999.0,58,0.00,,,0.00,Wunderground v.1.15,2013-09-09 21:36:00,
2013-09-09 17:39:00,84.1,68.7,30.03,SE,135,3.0,-999.0,60,0.00,,,0.00,Wunderground v.1.15,2013-09-09 21:39:00,
2013-09-09 17:41:00,84.1,68.7,30.03,SE,135,3.0,-999.0,60,0.00,,,0.00,Wunderground v.1.15,2013-09-09 21:41:00,
2013-09-09 17:44:00,84.1,68.7,30.03,SE,135,3.0,-999.0,60,0.00,,,0.00,Wunderground v.1.15,2013-09-09 21:44:00,
2013-09-09 17:46:00,84.1,68.7,30.03,SE,135,3.0,-999.0,60,0.00,,,0.00,Wunderground v.1.15,2013-09-09 21:46:00,
2013-09-09 17:49:00,84.1,68.7,30.03,SE,135,3.0,-999.0,60,0.00,,,0.00,Wunderground v.1.15,2013-09-09 21:49:00,
2013-09-09 17:51:00,84.1,68.7,30.03,SE,135,3.0,-999.0,60,0.00,,,0.00,Wunderground v.1.15,2013-09-09 21:51:00,
2013-09-09 17:54:00,84.3,69.9,30.03,SE,135,2.0,-999.0,62,0.00,,,0.00,Wunderground v.1.15,2013-09-09 21:54:00,
2013-09-09 17:56:00,84.3,69.9,30.03,SE,135,2.0,-999.0,62,0.00,,,0.00,Wunderground v.1.15,2013-09-09 21:56:00,
2013-09-09 17:59:00,84.3,69.9,30.03,SE,135,2.0,-999.0,62,0.00,,,0.00,Wunderground v.1.15,2013-09-09 21:59:00,
2013-09-09 18:01:00,84.3,69.9,30.03,SE,135,2.0,-999.0,62,0.00,,,0.00,Wunderground v.1.15,2013-09-09 22:01:00,
2013-09-09 18:04:00,84.3,69.9,30.03,SE,135,2.0,-999.0,62,0.00,,,0.00,Wunderground v.1.15,2013-09-09 22:04:00,
2013-09-09 18:06:00,84.3,69.9,30.03,SE,135,2.0,-999.0,62,0.00,,,0.00,Wunderground v.1.15,2013-09-09 22:06:00,
2013-09-09 18:09:00,84.3,70.8,30.02,SE,135,3.0,-999.0,64,0.00,,,0.00,Wunderground v.1.15,2013-09-09 22:09:00,
2013-09-09 18:11:00,84.3,70.8,30.02,SE,135,3.0,-999.0,64,0.00,,,0.00,Wunderground v.1.15,2013-09-09 22:11:00,
2013-09-09 18:14:00,84.3,70.8,30.02,SE,135,3.0,-999.0,64,0.00,,,0.00,Wunderground v.1.15,2013-09-09 22:14:00,
2013-09-09 18:16:00,84.3,70.8,30.02,SE,135,3.0,-999.0,64,0.00,,,0.00,Wunderground v.1.15,2013-09-09 22:16:00,
2013-09-09 18:19:00,84.3,70.8,30.02,SE,135,3.0,-999.0,64,0.00,,,0.00,Wunderground v.1.15,2013-09-09 22:19:00,
2013-09-09 18:21:00,84.3,70.8,30.02,SE,135,3.0,-999.0,64,0.00,,,0.00,Wunderground v.1.15,2013-09-09 22:21:00,
2013-09-09 18:24:00,83.7,69.8,30.02,ESE,113,2.0,-999.0,63,0.00,,,0.00,Wunderground v.1.15,2013-09-09 22:24:00,
2013-09-09 18:26:00,83.7,69.8,30.02,ESE,113,2.0,-999.0,63,0.00,,,0.00,Wunderground v.1.15,2013-09-09 22:26:00,
2013-09-09 18:29:00,83.7,69.8,30.02,ESE,113,2.0,-999.0,63,0.00,,,0.00,Wunderground v.1.15,2013-09-09 22:29:00,
2013-09-09 18:31:00,83.7,69.8,30.02,ESE,113,2.0,-999.0,63,0.00,,,0.00,Wunderground v.1.15,2013-09-09 22:31:00,
2013-09-09 18:34:00,83.7,69.8,30.02,ESE,113,2.0,-999.0,63,0.00,,,0.00,Wunderground v.1.15,2013-09-09 22:34:00,
2013-09-09 18:36:00,83.7,69.8,30.02,ESE,113,2.0,-999.0,63,0.00,,,0.00,Wunderground v.1.15,2013-09-09 22:36:00,
2013-09-09 18:39:00,82.9,69.9,30.02,ESE,113,2.0,-999.0,65,0.00,,,0.00,Wunderground v.1.15,2013-09-09 22:39:00,
2013-09-09 18:41:00,82.9,69.9,30.02,ESE,113,2.0,-999.0,65,0.00,,,0.00,Wunderground v.1.15,2013-09-09 22:41:00,
2013-09-09 18:44:00,82.9,69.9,30.02,ESE,113,2.0,-999.0,65,0.00,,,0.00,Wunderground v.1.15,2013-09-09 22:44:00,
2013-09-09 18:46:00,82.9,69.9,30.02,ESE,113,2.0,-999.0,65,0.00,,,0.00,Wunderground v.1.15,2013-09-09 22:46:00,
2013-09-09 18:49:00,82.9,69.9,30.02,ESE,113,2.0,-999.0,65,0.00,,,0.00,Wunderground v.1.15,2013-09-09 22:49:00,
2013-09-09 18:51:00,82.9,69.9,30.02,ESE,113,2.0,-999.0,65,0.00,,,0.00,Wunderground v.1.15,2013-09-09 22:51:00,
2013-09-09 18:54:00,82.0,70.8,30.02,ESE,113,1.0,-999.0,69,0.00,,,0.00,Wunderground v.1.15,2013-09-09 22:54:00,
2013-09-09 18:56:00,82.0,70.8,30.02,ESE,113,1.0,-999.0,69,0.00,,,0.00,Wunderground v.1.15,2013-09-09 22:56:00,
2013-09-09 18:59:00,82.0,70.8,30.02,ESE,113,1.0,-999.0,69,0.00,,,0.00,Wunderground v.1.15,2013-09-09 22:59:00,
2013-09-09 19:01:00,82.0,70.8,30.02,ESE,113,1.0,-999.0,69,0.00,,,0.00,Wunderground v.1.15,2013-09-09 23:01:00,
2013-09-09 19:04:00,82.0,70.8,30.02,ESE,113,1.0,-999.0,69,0.00,,,0.00,Wunderground v.1.15,2013-09-09 23:04:00,
2013-09-09 19:06:00,82.0,70.8,30.02,ESE,113,1.0,-999.0,69,0.00,,,0.00,Wunderground v.1.15,2013-09-09 23:06:00,
2013-09-09 19:09:00,80.7,70.8,30.02,N/A,-737280,0.0,-999.0,72,0.00,,,0.00,Wunderground v.1.15,2013-09-09 23:09:00,
2013-09-09 19:11:00,80.7,70.8,30.02,N/A,-737280,0.0,-999.0,72,0.00,,,0.00,Wunderground v.1.15,2013-09-09 23:11:00,
2013-09-09 19:14:00,80.7,70.8,30.02,N/A,-737280,0.0,-999.0,72,0.00,,,0.00,Wunderground v.1.15,2013-09-09 23:14:00,
2013-09-09 19:16:00,80.7,70.8,30.02,N/A,-737280,0.0,-999.0,72,0.00,,,0.00,Wunderground v.1.15,2013-09-09 23:16:00,
2013-09-09 19:19:00,80.7,70.8,30.02,N/A,-737280,0.0,-999.0,72,0.00,,,0.00,Wunderground v.1.15,2013-09-09 23:19:00,
2013-09-09 19:21:00,80.7,70.8,30.02,N/A,-737280,0.0,-999.0,72,0.00,,,0.00,Wunderground v.1.15,2013-09-09 23:21:00,
2013-09-09 19:24:00,79.3,71.1,30.02,SSW,203,0.0,-999.0,76,0.00,,,0.00,Wunderground v.1.15,2013-09-09 23:24:00,
2013-09-09 19:26:00,79.3,71.1,30.02,SSW,203,0.0,-999.0,76,0.00,,,0.00,Wunderground v.1.15,2013-09-09 23:26:00,
2013-09-09 19:29:00,79.3,71.1,30.02,SSW,203,0.0,-999.0,76,0.00,,,0.00,Wunderground v.1.15,2013-09-09 23:29:00,
2013-09-09 19:31:00,79.3,71.1,30.02,SSW,203,0.0,-999.0,76,0.00,,,0.00,Wunderground v.1.15,2013-09-09 23:31:00,
2013-09-09 19:34:00,79.3,71.1,30.02,SSW,203,0.0,-999.0,76,0.00,,,0.00,Wunderground v.1.15,2013-09-09 23:34:00,
2013-09-09 19:36:00,79.3,71.1,30.02,SSW,203,0.0,-999.0,76,0.00,,,0.00,Wunderground v.1.15,2013-09-09 23:36:00,
2013-09-09 19:39:00,77.3,70.6,30.03,N/A,-737280,0.0,-999.0,80,0.00,,,0.00,Wunderground v.1.15,2013-09-09 23:39:00,
2013-09-09 19:41:00,77.3,70.6,30.03,N/A,-737280,0.0,-999.0,80,0.00,,,0.00,Wunderground v.1.15,2013-09-09 23:41:00,
2013-09-09 19:44:00,77.3,70.6,30.03,N/A,-737280,0.0,-999.0,80,0.00,,,0.00,Wunderground v.1.15,2013-09-09 23:44:00,
2013-09-09 19:46:00,77.3,70.6,30.03,N/A,-737280,0.0,-999.0,80,0.00,,,0.00,Wunderground v.1.15,2013-09-09 23:46:00,
2013-09-09 19:49:00,77.3,70.6,30.03,N/A,-737280,0.0,-999.0,80,0.00,,,0.00,Wunderground v.1.15,2013-09-09 23:49:00,
2013-09-09 19:51:00,77.3,70.6,30.03,N/A,-737280,0.0,-999.0,80,0.00,,,0.00,Wunderground v.1.15,2013-09-09 23:51:00,
2013-09-09 19:54:00,75.9,70.7,30.03,N/A,-737280,0.0,-999.0,84,0.00,,,0.00,Wunderground v.1.15,2013-09-09 23:54:00,
2013-09-09 19:56:00,75.9,70.7,30.03,N/A,-737280,0.0,-999.0,84,0.00,,,0.00,Wunderground v.1.15,2013-09-09 23:56:00,
2013-09-09 19:59:00,75.9,70.7,30.03,N/A,-737280,0.0,-999.0,84,0.00,,,0.00,Wunderground v.1.15,2013-09-09 23:59:00,
2013-09-09 20:01:00,75.9,70.7,30.03,N/A,-737280,0.0,-999.0,84,0.00,,,0.00,Wunderground v.1.15,2013-09-10 00:01:00,
2013-09-09 20:04:00,75.9,70.7,30.03,N/A,-737280,0.0,-999.0,84,0.00,,,0.00,Wunderground v.1.15,2013-09-10 00:04:00,
2013-09-09 20:06:00,75.9,70.7,30.03,N/A,-737280,0.0,-999.0,84,0.00,,,0.00,Wunderground v.1.15,2013-09-10 00:06:00,
2013-09-09 20:09:00,75.1,70.6,30.03,N/A,-737280,0.0,-999.0,86,0.00,,,0.00,Wunderground v.1.15,2013-09-10 00:09:00,
2013-09-09 20:11:00,75.1,70.6,30.03,N/A,-737280,0.0,-999.0,86,0.00,,,0.00,Wunderground v.1.15,2013-09-10 00:11:00,
2013-09-09 20:14:00,75.1,70.6,30.03,N/A,-737280,0.0,-999.0,86,0.00,,,0.00,Wunderground v.1.15,2013-09-10 00:14:00,
2013-09-09 20:16:00,75.1,70.6,30.03,N/A,-737280,0.0,-999.0,86,0.00,,,0.00,Wunderground v.1.15,2013-09-10 00:16:00,
2013-09-09 20:19:00,75.1,70.6,30.03,N/A,-737280,0.0,-999.0,86,0.00,,,0.00,Wunderground v.1.15,2013-09-10 00:19:00,
2013-09-09 20:21:00,75.1,70.6,30.03,N/A,-737280,0.0,-999.0,86,0.00,,,0.00,Wunderground v.1.15,2013-09-10 00:21:00,
2013-09-09 20:24:00,74.2,70.7,30.03,N/A,-737280,0.0,-999.0,89,0.00,,,0.00,Wunderground v.1.15,2013-09-10 00:24:00,
2013-09-09 20:26:00,74.2,70.7,30.03,N/A,-737280,0.0,-999.0,89,0.00,,,0.00,Wunderground v.1.15,2013-09-10 00:26:00,
2013-09-09 20:29:00,74.2,70.7,30.03,N/A,-737280,0.0,-999.0,89,0.00,,,0.00,Wunderground v.1.15,2013-09-10 00:29:00,
2013-09-09 20:31:00,74.2,70.7,30.03,N/A,-737280,0.0,-999.0,89,0.00,,,0.00,Wunderground v.1.15,2013-09-10 00:31:00,
2013-09-09 20:34:00,74.2,70.7,30.03,N/A,-737280,0.0,-999.0,89,0.00,,,0.00,Wunderground v.1.15,2013-09-10 00:34:00,
2013-09-09 20:36:00,74.2,70.7,30.03,N/A,-737280,0.0,-999.0,89,0.00,,,0.00,Wunderground v.1.15,2013-09-10 00:36:00,
2013-09-09 20:39:00,73.4,70.6,30.03,N/A,-737280,0.0,-999.0,91,0.00,,,0.00,Wunderground v.1.15,2013-09-10 00:39:00,
2013-09-09 20:41:00,73.4,70.6,30.03,N/A,-737280,0.0,-999.0,91,0.00,,,0.00,Wunderground v.1.15,2013-09-10 00:41:00,
2013-09-09 20:44:00,73.4,70.6,30.03,N/A,-737280,0.0,-999.0,91,0.00,,,0.00,Wunderground v.1.15,2013-09-10 00:44:00,
2013-09-09 20:46:00,73.4,70.6,30.03,N/A,-737280,0.0,-999.0,91,0.00,,,0.00,Wunderground v.1.15,2013-09-10 00:46:00,
2013-09-09 20:49:00,73.4,70.6,30.03,N/A,-737280,0.0,-999.0,91,0.00,,,0.00,Wunderground v.1.15,2013-09-10 00:49:00,
2013-09-09 20:51:00,73.4,70.6,30.03,N/A,-737280,0.0,-999.0,91,0.00,,,0.00,Wunderground v.1.15,2013-09-10 00:51:00,
2013-09-09 20:54:00,72.8,70.3,30.04,N/A,-737280,0.0,-999.0,92,0.00,,,0.00,Wunderground v.1.15,2013-09-10 00:54:00,
2013-09-09 20:56:00,72.8,70.3,30.04,N/A,-737280,0.0,-999.0,92,0.00,,,0.00,Wunderground v.1.15,2013-09-10 00:56:00,
2013-09-09 20:59:00,72.8,70.3,30.04,N/A,-737280,0.0,-999.0,92,0.00,,,0.00,Wunderground v.1.15,2013-09-10 00:59:00,
2013-09-09 21:01:00,72.8,70.3,30.04,N/A,-737280,0.0,-999.0,92,0.00,,,0.00,Wunderground v.1.15,2013-09-10 01:01:00,
2013-09-09 21:04:00,72.8,70.3,30.04,N/A,-737280,0.0,-999.0,92,0.00,,,0.00,Wunderground v.1.15,2013-09-10 01:04:00,
2013-09-09 21:06:00,72.8,70.3,30.04,N/A,-737280,0.0,-999.0,92,0.00,,,0.00,Wunderground v.1.15,2013-09-10 01:06:00,
2013-09-09 21:09:00,72.3,70.2,30.04,N/A,-737280,0.0,-999.0,93,0.00,,,0.00,Wunderground v.1.15,2013-09-10 01:09:00,
2013-09-09 21:11:00,72.3,70.2,30.04,N/A,-737280,0.0,-999.0,93,0.00,,,0.00,Wunderground v.1.15,2013-09-10 01:11:00,
2013-09-09 21:14:00,72.3,70.2,30.04,N/A,-737280,0.0,-999.0,93,0.00,,,0.00,Wunderground v.1.15,2013-09-10 01:14:00,
2013-09-09 21:16:00,72.3,70.2,30.04,N/A,-737280,0.0,-999.0,93,0.00,,,0.00,Wunderground v.1.15,2013-09-10 01:16:00,
2013-09-09 21:19:00,72.3,70.2,30.04,N/A,-737280,0.0,-999.0,93,0.00,,,0.00,Wunderground v.1.15,2013-09-10 01:19:00,
2013-09-09 21:21:00,72.3,70.2,30.04,N/A,-737280,0.0,-999.0,93,0.00,,,0.00,Wunderground v.1.15,2013-09-10 01:21:00,
2013-09-09 21:24:00,72.1,69.6,30.05,N/A,-737280,0.0,-999.0,92,0.00,,,0.00,Wunderground v.1.15,2013-09-10 01:24:00,
2013-09-09 21:26:00,72.1,69.6,30.05,N/A,-737280,0.0,-999.0,92,0.00,,,0.00,Wunderground v.1.15,2013-09-10 01:26:00,
2013-09-09 21:29:00,72.1,69.6,30.05,N/A,-737280,0.0,-999.0,92,0.00,,,0.00,Wunderground v.1.15,2013-09-10 01:29:00,
2013-09-09 21:31:00,72.1,69.6,30.05,N/A,-737280,0.0,-999.0,92,0.00,,,0.00,Wunderground v.1.15,2013-09-10 01:31:00,
2013-09-09 21:34:00,72.1,69.6,30.05,N/A,-737280,0.0,-999.0,92,0.00,,,0.00,Wunderground v.1.15,2013-09-10 01:34:00,
2013-09-09 21:36:00,72.1,69.6,30.05,N/A,-737280,0.0,-999.0,92,0.00,,,0.00,Wunderground v.1.15,2013-09-10 01:36:00,
2013-09-09 21:39:00,71.5,69.4,30.05,N/A,-737280,0.0,-999.0,93,0.00,,,0.00,Wunderground v.1.15,2013-09-10 01:39:00,
2013-09-09 21:41:00,71.5,69.4,30.05,N/A,-737280,0.0,-999.0,93,0.00,,,0.00,Wunderground v.1.15,2013-09-10 01:41:00,
2013-09-09 21:44:00,71.5,69.4,30.05,N/A,-737280,0.0,-999.0,93,0.00,,,0.00,Wunderground v.1.15,2013-09-10 01:44:00,
2013-09-09 21:46:00,71.5,69.4,30.05,N/A,-737280,0.0,-999.0,93,0.00,,,0.00,Wunderground v.1.15,2013-09-10 01:46:00,
2013-09-09 21:49:00,71.5,69.4,30.05,N/A,-737280,0.0,-999.0,93,0.00,,,0.00,Wunderground v.1.15,2013-09-10 01:49:00,
2013-09-09 21:51:00,71.5,69.4,30.05,N/A,-737280,0.0,-999.0,93,0.00,,,0.00,Wunderground v.1.15,2013-09-10 01:51:00,
2013-09-09 21:54:00,71.3,69.2,30.06,N/A,-737280,0.0,-999.0,93,0.00,,,0.00,Wunderground v.1.15,2013-09-10 01:54:00,
2013-09-09 21:56:00,71.3,69.2,30.06,N/A,-737280,0.0,-999.0,93,0.00,,,0.00,Wunderground v.1.15,2013-09-10 01:56:00,
2013-09-09 21:59:00,71.3,69.2,30.06,N/A,-737280,0.0,-999.0,93,0.00,,,0.00,Wunderground v.1.15,2013-09-10 01:59:00,
2013-09-09 22:01:00,71.3,69.2,30.06,N/A,-737280,0.0,-999.0,93,0.00,,,0.00,Wunderground v.1.15,2013-09-10 02:01:00,
2013-09-09 22:04:00,71.3,69.2,30.06,N/A,-737280,0.0,-999.0,93,0.00,,,0.00,Wunderground v.1.15,2013-09-10 02:04:00,
2013-09-09 22:06:00,71.3,69.2,30.06,N/A,-737280,0.0,-999.0,93,0.00,,,0.00,Wunderground v.1.15,2013-09-10 02:06:00,
2013-09-09 22:09:00,70.4,68.3,30.06,N/A,-737280,0.0,-999.0,93,0.00,,,0.00,Wunderground v.1.15,2013-09-10 02:09:00,
2013-09-09 22:11:00,70.4,68.3,30.06,N/A,-737280,0.0,-999.0,93,0.00,,,0.00,Wunderground v.1.15,2013-09-10 02:11:00,
2013-09-09 22:14:00,70.4,68.3,30.06,N/A,-737280,0.0,-999.0,93,0.00,,,0.00,Wunderground v.1.15,2013-09-10 02:14:00,
2013-09-09 22:16:00,70.4,68.3,30.06,N/A,-737280,0.0,-999.0,93,0.00,,,0.00,Wunderground v.1.15,2013-09-10 02:16:00,
2013-09-09 22:19:00,70.4,68.3,30.06,N/A,-737280,0.0,-999.0,93,0.00,,,0.00,Wunderground v.1.15,2013-09-10 02:19:00,
2013-09-09 22:21:00,70.4,68.3,30.06,N/A,-737280,0.0,-999.0,93,0.00,,,0.00,Wunderground v.1.15,2013-09-10 02:21:00,
2013-09-09 22:24:00,70.3,68.2,30.07,N/A,-737280,0.0,-999.0,93,0.00,,,0.00,Wunderground v.1.15,2013-09-10 02:24:00,
2013-09-09 22:26:00,70.3,68.2,30.07,N/A,-737280,0.0,-999.0,93,0.00,,,0.00,Wunderground v.1.15,2013-09-10 02:26:00,
2013-09-09 22:29:00,70.3,68.2,30.07,N/A,-737280,0.0,-999.0,93,0.00,,,0.00,Wunderground v.1.15,2013-09-10 02:29:00,
2013-09-09 22:31:00,70.3,68.2,30.07,N/A,-737280,0.0,-999.0,93,0.00,,,0.00,Wunderground v.1.15,2013-09-10 02:31:00,
2013-09-09 22:34:00,70.3,68.2,30.07,N/A,-737280,0.0,-999.0,93,0.00,,,0.00,Wunderground v.1.15,2013-09-10 02:34:00,
2013-09-09 22:36:00,70.3,68.2,30.07,N/A,-737280,0.0,-999.0,93,0.00,,,0.00,Wunderground v.1.15,2013-09-10 02:36:00,
2013-09-09 22:39:00,70.0,68.2,30.07,N/A,-737280,0.0,-999.0,94,0.00,,,0.00,Wunderground v.1.15,2013-09-10 02:39:00,
2013-09-09 22:41:00,70.0,68.2,30.07,N/A,-737280,0.0,-999.0,94,0.00,,,0.00,Wunderground v.1.15,2013-09-10 02:41:00,
2013-09-09 22:44:00,70.0,68.2,30.07,N/A,-737280,0.0,-999.0,94,0.00,,,0.00,Wunderground v.1.15,2013-09-10 02:44:00,
2013-09-09 22:46:00,70.0,68.2,30.07,N/A,-737280,0.0,-999.0,94,0.00,,,0.00,Wunderground v.1.15,2013-09-10 02:46:00,
2013-09-09 22:49:00,70.0,68.2,30.07,N/A,-737280,0.0,-999.0,94,0.00,,,0.00,Wunderground v.1.15,2013-09-10 02:49:00,
2013-09-09 22:51:00,70.0,68.2,30.07,N/A,-737280,0.0,-999.0,94,0.00,,,0.00,Wunderground v.1.15,2013-09-10 02:51:00,
2013-09-09 22:54:00,69.5,68.0,30.08,N/A,-737280,0.0,-999.0,95,0.00,,,0.00,Wunderground v.1.15,2013-09-10 02:54:00,
2013-09-09 22:56:00,69.5,68.0,30.08,N/A,-737280,0.0,-999.0,95,0.00,,,0.00,Wunderground v.1.15,2013-09-10 02:56:00,
2013-09-09 22:59:00,69.5,68.0,30.08,N/A,-737280,0.0,-999.0,95,0.00,,,0.00,Wunderground v.1.15,2013-09-10 02:59:00,
2013-09-09 23:01:00,69.5,68.0,30.08,N/A,-737280,0.0,-999.0,95,0.00,,,0.00,Wunderground v.1.15,2013-09-10 03:01:00,
2013-09-09 23:04:00,69.5,68.0,30.08,N/A,-737280,0.0,-999.0,95,0.00,,,0.00,Wunderground v.1.15,2013-09-10 03:04:00,
2013-09-09 23:06:00,69.5,68.0,30.08,N/A,-737280,0.0,-999.0,95,0.00,,,0.00,Wunderground v.1.15,2013-09-10 03:06:00,
2013-09-09 23:09:00,69.4,67.9,30.08,N/A,-737280,0.0,-999.0,95,0.00,,,0.00,Wunderground v.1.15,2013-09-10 03:09:00,
2013-09-09 23:11:00,69.4,67.9,30.08,N/A,-737280,0.0,-999.0,95,0.00,,,0.00,Wunderground v.1.15,2013-09-10 03:11:00,
2013-09-09 23:14:00,69.4,67.9,30.08,N/A,-737280,0.0,-999.0,95,0.00,,,0.00,Wunderground v.1.15,2013-09-10 03:14:00,
2013-09-09 23:16:00,69.4,67.9,30.08,N/A,-737280,0.0,-999.0,95,0.00,,,0.00,Wunderground v.1.15,2013-09-10 03:16:00,
2013-09-09 23:21:00,69.4,67.9,30.08,N/A,-737280,0.0,-999.0,95,0.00,,,0.00,Wunderground v.1.15,2013-09-10 03:21:00,
2013-09-09 23:24:00,69.1,67.6,30.08,N/A,-737280,0.0,-999.0,95,0.00,,,0.00,Wunderground v.1.15,2013-09-10 03:24:00,
2013-09-09 23:26:00,69.1,67.6,30.08,N/A,-737280,0.0,-999.0,95,0.00,,,0.00,Wunderground v.1.15,2013-09-10 03:26:00,
2013-09-09 23:31:00,69.1,67.6,30.08,N/A,-737280,0.0,-999.0,95,0.00,,,0.00,Wunderground v.1.15,2013-09-10 03:31:00,
2013-09-09 23:36:00,69.1,67.6,30.08,N/A,-737280,0.0,-999.0,95,0.00,,,0.00,Wunderground v.1.15,2013-09-10 03:36:00,
2013-09-09 23:41:00,69.0,67.5,30.09,N/A,-737280,0.0,-999.0,95,0.00,,,0.00,Wunderground v.1.15,2013-09-10 03:41:00,
2013-09-09 23:46:00,69.0,67.5,30.09,N/A,-737280,0.0,-999.0,95,0.00,,,0.00,Wunderground v.1.15,2013-09-10 03:46:00,
2013-09-09 23:51:00,69.0,67.5,30.09,N/A,-737280,0.0,-999.0,95,0.00,,,0.00,Wunderground v.1.15,2013-09-10 03:51:00,
2013-09-09 23:56:00,68.8,67.3,30.09,N/A,-737280,0.0,-999.0,95,0.00,,,0.00,Wunderground v.1.15,2013-09-10 03:56:00,